Current weather by "City, St" or "zip code"  
 

Current Conditions: Garfield County Regional Airport, CO

Fair


60.0 F

Last Updated on Oct 24 2020, 7:53 pm MDT
Humidity: 24%
Wind Speed: E 6.9 mph
Barometer 29.78 in
Dewpoint: 23.0 F
Visibility: 10.00 mi
Precip: --
Heat Index: NA
Wind Chill: 59 F
Current conditions at:

Garfield County Regional Airport, CO (KRIL)

Lat: 39.52793 Lon: 107.71961

Local Radar Image active severe weather and emergency alerts image image weather storm and storm spotter reports image weather observation monitoring service image
Local
Radar
Active
Alerts
Storm Reports Obs
Monitoring

Sign-up For Email & Text Message Weather Alert Notification Services



Advertise Here

Observation History for Garfield County Regional Airport, CO


Time Wind
(mph)
Vis
(mi)
Weather Precip (in) Temperature (F) Relative
Humidity
Wind
Chill
(F)
Heat
Index
(F)
Pressure
Air Dwpt altimeter
(in)
sea level
(mb)
Rmks
7:53 pm MDT E 6.9 10.00 Fair -- 60.0 23.0 24% 59 NA 29.78 1006.0
6:53 pm MDT N 0.0 10.00 Fair -- 62.0 26.1 25% NA NA 29.79 1006.3
5:53 pm MDT W 8.1 10.00 Fair -- 65.0 24.1 21% NA NA 29.80 1006.0
4:53 pm MDT W 16.1 G 25.3 10.00 Fair -- 66.0 21.9 19% NA NA 29.81 1006.2
3:53 pm MDT W 16.1 G 27.6 10.00 Fair -- 67.0 24.1 20% NA NA 29.82 1006.1
2:53 pm MDT W 20.7 G 32.2 10.00 Fair and Breezy -- 70.0 24.1 18% NA NA 29.82 1006.3
1:53 pm MDT W 24.2 G 35.7 10.00 Fair and Breezy -- 66.0 24.1 20% NA NA 29.85 1007.1
12:53 pm MDT NW 6.9 10.00 Fair -- 62.0 23.0 22% 62 NA 29.90 1009.1
11:53 am MDT W 3.5 10.00 Fair -- 57.0 19.9 24% NA NA 29.96 1011.6
10:53 am MDT N 0.0 10.00 Fair -- 48.0 19.9 33% NA NA 30.01 1013.5
9:53 am MDT N 3.5 10.00 Fair -- 40.0 19.9 45% NA NA 30.03 1015.1
8:53 am MDT N 3.5 10.00 Fair -- 34.0 19.9 56% NA NA 30.04 1016.0
7:53 am MDT N 0.0 9.00 Fair -- 31.0 14.0 49% NA NA 30.03 1016.0
6:53 am MDT N 0.0 10.00 Fair -- 32.0 14.0 47% NA NA 30.04 1015.7
5:53 am MDT N 0.0 10.00 Fair -- 33.0 14.0 45% NA NA 30.03 1015.1
4:53 am MDT N 0.0 10.00 Fair -- 34.0 14.0 44% NA NA 30.03 1014.7
3:53 am MDT N 0.0 10.00 Fair -- 34.0 14.0 44% NA NA 30.04 1015.0
2:53 am MDT E 3.5 10.00 Fair -- 32.0 12.9 45% NA NA 30.06 1016.4
1:53 am MDT N 0.0 7.00 Fair -- 37.0 14.0 39% NA NA 30.06 1016.1
12:53 am MDT N 0.0 10.00 Fair -- 40.0 17.1 40% NA NA 30.06 1016.1
11:53 pm MDT N 0.0 10.00 Fair -- 41.0 14.0 33% NA NA 30.06 1016.6
10:53 pm MDT N 0.0 10.00 Fair -- 47.0 15.1 28% NA NA 30.07 1016.6
9:53 pm MDT E 3.5 10.00 Fair -- 49.0 14.0 25% NA NA 30.07 1017.0
8:53 pm MDT NE 5.8 10.00 Fair -- 50.0 15.1 25% 48 NA 30.06 1017.4

Regional Weather Observation


Sunlight, CO (K5SM)

Mostly Cloudy
37.0 F

Meeker Airport, CO (KEEO)

Overcast
59.0 F

Grand Junction Regional Airport, CO (KGJT)

Fair
57.0 F

Craig-Moffat Airport, CO (KCAG)

Overcast
49.0 F

Hayden, Yampa Valley Airport, CO (KHDN)

Overcast
45.0 F

Eagle County Regional, CO (KEGE)

Mostly Cloudy
59.0 F